TimePST,TemperatureF,Dew PointF,Humidity,Sea Level PressureIn,VisibilityMPH,Wind Direction,Wind SpeedMPH,Gust SpeedMPH,PrecipitationIn,Events,Conditions,WindDirDegrees,DateUTC
12:15 AM,23.0,8.6,54,30.24,10.0,NNE,9.2,16.1,N/A,,Clear,20,2013-12-07 08:15:00
12:35 AM,21.2,8.6,58,30.23,10.0,NNE,9.2,-,N/A,,Clear,20,2013-12-07 08:35:00
12:55 AM,23.0,8.6,54,30.23,10.0,North,9.2,-,N/A,,Clear,10,2013-12-07 08:55:00
1:15 AM,23.0,8.6,54,30.23,10.0,North,11.5,-,N/A,,Clear,10,2013-12-07 09:15:00
1:35 AM,21.2,8.6,58,30.23,10.0,NNE,11.5,-,N/A,,Clear,20,2013-12-07 09:35:00
1:55 AM,21.2,8.6,58,30.24,10.0,NNE,10.4,16.1,N/A,,Clear,20,2013-12-07 09:55:00
2:15 AM,21.2,8.6,58,30.24,10.0,NNE,11.5,-,N/A,,Clear,20,2013-12-07 10:15:00
2:35 AM,21.2,6.8,54,30.24,10.0,NNE,9.2,-,N/A,,Clear,20,2013-12-07 10:35:00
2:55 AM,21.2,6.8,54,30.25,10.0,North,9.2,16.1,N/A,,Clear,10,2013-12-07 10:55:00
3:15 AM,21.2,6.8,54,30.25,10.0,North,10.4,18.4,N/A,,Clear,10,2013-12-07 11:15:00
3:35 AM,23.0,6.8,50,30.25,10.0,North,13.8,23.0,N/A,,Clear,10,2013-12-07 11:35:00
3:55 AM,23.0,5.0,46,30.25,10.0,North,15.0,20.7,N/A,,Clear,10,2013-12-07 11:55:00
4:15 AM,23.0,5.0,46,30.25,10.0,North,16.1,24.2,N/A,,Clear,360,2013-12-07 12:15:00
4:35 AM,23.0,3.2,43,30.26,10.0,North,15.0,24.2,N/A,,Clear,360,2013-12-07 12:35:00
4:55 AM,23.0,5.0,46,30.27,10.0,North,15.0,19.6,N/A,,Clear,10,2013-12-07 12:55:00
5:15 AM,21.2,5.0,50,30.28,10.0,NNE,13.8,20.7,N/A,,Clear,20,2013-12-07 13:15:00
5:35 AM,23.0,5.0,46,30.28,10.0,NNE,13.8,25.3,N/A,,Clear,20,2013-12-07 13:35:00
5:55 AM,21.2,6.8,54,30.28,10.0,NNE,16.1,25.3,N/A,,Clear,20,2013-12-07 13:55:00
6:15 AM,21.2,5.0,50,30.28,10.0,NNE,17.3,21.9,N/A,,Clear,30,2013-12-07 14:15:00
6:35 AM,21.2,6.8,54,30.29,10.0,NNE,13.8,26.5,N/A,,Clear,30,2013-12-07 14:35:00
6:55 AM,21.2,6.8,54,30.30,10.0,NNE,15.0,21.9,N/A,,Clear,20,2013-12-07 14:55:00
7:15 AM,21.2,6.8,54,30.30,10.0,NNE,15.0,19.6,N/A,,Clear,30,2013-12-07 15:15:00
7:35 AM,21.2,6.8,54,30.31,10.0,NNE,8.1,19.6,N/A,,Clear,20,2013-12-07 15:35:00
7:55 AM,21.2,6.8,54,30.32,10.0,NNE,10.4,17.3,N/A,,Clear,20,2013-12-07 15:55:00
8:15 AM,21.2,6.8,54,30.32,10.0,NNE,12.7,19.6,N/A,,Clear,20,2013-12-07 16:15:00
8:35 AM,21.2,8.6,58,30.33,10.0,NNE,11.5,17.3,N/A,,Clear,20,2013-12-07 16:35:00
8:55 AM,23.0,8.6,54,30.34,10.0,NNE,11.5,-,N/A,,Clear,20,2013-12-07 16:55:00
9:15 AM,24.8,8.6,50,30.34,10.0,NNE,15.0,-,N/A,,Clear,20,2013-12-07 17:15:00
9:35 AM,24.8,8.6,50,30.35,10.0,NNE,13.8,-,N/A,,Clear,30,2013-12-07 17:35:00
9:55 AM,26.6,8.6,47,30.35,10.0,North,15.0,21.9,N/A,,Clear,10,2013-12-07 17:55:00
10:15 AM,26.6,8.6,47,30.35,10.0,North,16.1,26.5,N/A,,Clear,10,2013-12-07 18:15:00
10:35 AM,26.6,8.6,47,30.37,10.0,NNE,12.7,24.2,N/A,,Clear,20,2013-12-07 18:35:00
10:55 AM,26.6,8.6,47,30.37,10.0,North,15.0,23.0,N/A,,Clear,360,2013-12-07 18:55:00
11:15 AM,26.6,8.6,47,30.36,10.0,NNE,15.0,20.7,N/A,,Clear,30,2013-12-07 19:15:00
11:35 AM,28.4,8.6,43,30.38,10.0,NNE,12.7,21.9,N/A,,Clear,20,2013-12-07 19:35:00
11:55 AM,28.4,6.8,40,30.37,10.0,NNE,12.7,19.6,N/A,,Clear,20,2013-12-07 19:55:00
12:15 PM,28.4,8.6,43,30.38,10.0,NNE,10.4,-,N/A,,Clear,20,2013-12-07 20:15:00
12:35 PM,28.4,3.2,34,30.37,10.0,NNE,11.5,-,N/A,,Clear,30,2013-12-07 20:35:00
12:55 PM,28.4,5.0,37,30.36,10.0,NE,11.5,18.4,N/A,,Clear,40,2013-12-07 20:55:00
1:15 PM,28.4,3.2,34,30.37,10.0,NNE,8.1,-,N/A,,Clear,30,2013-12-07 21:15:00
1:35 PM,28.4,5.0,37,30.37,10.0,North,10.4,-,N/A,,Clear,10,2013-12-07 21:35:00
1:55 PM,30.2,6.8,37,30.36,10.0,NE,9.2,-,N/A,,Clear,40,2013-12-07 21:55:00
2:15 PM,28.4,3.2,34,30.37,10.0,NNE,6.9,-,N/A,,Clear,30,2013-12-07 22:15:00
2:35 PM,28.4,5.0,37,30.37,10.0,NE,6.9,-,N/A,,Clear,40,2013-12-07 22:35:00
2:55 PM,28.4,5.0,37,30.38,10.0,NE,8.1,-,N/A,,Clear,40,2013-12-07 22:55:00
3:15 PM,28.4,5.0,37,30.39,10.0,North,3.5,-,N/A,,Clear,10,2013-12-07 23:15:00
3:35 PM,28.4,6.8,40,30.40,10.0,Calm,Calm,-,N/A,,Clear,0,2013-12-07 23:35:00
3:55 PM,26.6,6.8,43,30.40,10.0,NNE,4.6,-,N/A,,Clear,20,2013-12-07 23:55:00
4:15 PM,26.6,5.0,40,30.41,10.0,NE,3.5,-,N/A,,Clear,40,2013-12-08 00:15:00
4:35 PM,26.6,3.2,37,30.40,10.0,NE,3.5,-,N/A,,Clear,50,2013-12-08 00:35:00
4:55 PM,21.2,3.2,46,30.40,10.0,NE,3.5,-,N/A,,Clear,50,2013-12-08 00:55:00
5:15 PM,23.0,5.0,46,30.40,10.0,NE,5.8,-,N/A,,Clear,40,2013-12-08 01:15:00
5:35 PM,24.8,5.0,43,30.41,10.0,NE,6.9,-,N/A,,Clear,40,2013-12-08 01:35:00
5:55 PM,23.0,3.2,43,30.41,10.0,NE,8.1,-,N/A,,Clear,40,2013-12-08 01:55:00
6:15 PM,23.0,3.2,43,30.41,10.0,NE,6.9,-,N/A,,Clear,40,2013-12-08 02:15:00
6:35 PM,21.2,5.0,50,30.41,10.0,NE,5.8,-,N/A,,Clear,40,2013-12-08 02:35:00
6:55 PM,23.0,6.8,50,30.41,10.0,NE,8.1,-,N/A,,Clear,40,2013-12-08 02:55:00
7:15 PM,23.0,6.8,50,30.41,10.0,NE,5.8,-,N/A,,Clear,50,2013-12-08 03:15:00
7:35 PM,21.2,5.0,50,30.41,10.0,Calm,Calm,-,N/A,,Clear,0,2013-12-08 03:35:00
7:55 PM,17.6,5.0,58,30.41,10.0,Calm,Calm,-,N/A,,Clear,0,2013-12-08 03:55:00
8:15 PM,12.2,5.0,73,30.42,10.0,Calm,Calm,-,N/A,,Clear,0,2013-12-08 04:15:00
8:35 PM,15.8,6.8,68,30.41,10.0,Calm,Calm,-,N/A,,Clear,0,2013-12-08 04:35:00
8:55 PM,12.2,5.0,73,30.41,10.0,Calm,Calm,-,N/A,,Clear,0,2013-12-08 04:55:00
9:15 PM,14.0,6.8,73,30.42,10.0,Calm,Calm,-,N/A,,Clear,0,2013-12-08 05:15:00
9:35 PM,14.0,8.6,79,30.42,10.0,Calm,Calm,-,N/A,,Clear,0,2013-12-08 05:35:00
9:55 PM,12.2,6.8,79,30.42,10.0,Calm,Calm,-,N/A,,Clear,0,2013-12-08 05:55:00
10:15 PM,12.2,6.8,79,30.42,10.0,Calm,Calm,-,N/A,,Clear,0,2013-12-08 06:15:00
10:35 PM,12.2,5.0,73,30.42,10.0,Calm,Calm,-,N/A,,Clear,0,2013-12-08 06:35:00
10:55 PM,12.2,5.0,73,30.42,10.0,Calm,Calm,-,N/A,,Clear,0,2013-12-08 06:55:00
11:15 PM,12.2,5.0,73,30.42,10.0,Calm,Calm,-,N/A,,Clear,0,2013-12-08 07:15:00
11:35 PM,10.4,3.2,73,30.43,10.0,Calm,Calm,-,N/A,,Clear,0,2013-12-08 07:35:00
11:55 PM,10.4,5.0,79,30.43,10.0,Calm,Calm,-,N/A,,Clear,0,2013-12-08 07:55:00